VE3ZEB-1 Weather Reports


Display with metric or nautical units.
time (UTC)temp
F
wind
direction
speed
MPH
gust
MPH
rain 1hr
in
rain 24hr
in
rain mn
in
humidity
%
barometer
mb
20260504044024 51 232 4.0 7.0 0.00 0.00 0.00 65 679.5
20260504043024 51 233 4.0 7.0 0.00 0.00 0.00 65 679.5
20260504042024 51 235 4.0 7.0 0.00 0.00 0.00 65 679.5
20260504041024 51 239 4.0 7.0 0.00 0.00 0.00 65 679.5
20260504040024 51 233 4.0 7.0 0.00 0.00 0.00 63 679.5
20260504035024 52 242 3.0 6.0 0.00 0.00 0.00 63 679.5
20260504034025 52 237 3.0 7.0 0.00 0.00 0.00 61 679.5
20260504033025 53 235 3.0 5.0 0.00 0.00 0.00 60 679.5
20260504032025 53 246 3.0 6.0 0.00 0.00 0.00 60 679.6
20260504031045 53 243 4.0 9.0 0.00 0.00 0.00 60 679.6
20260504030025 54 250 3.0 6.0 0.00 0.00 0.00 61 679.6
20260504025025 54 256 3.0 6.0 0.00 0.00 0.00 60 679.6
20260504024046 54 259 4.0 6.0 0.00 0.00 0.00 59 679.6
20260504023026 54 242 4.0 10.0 0.00 0.00 0.00 57 679.6
20260504022026 54 234 4.0 7.0 0.00 0.00 0.00 56 679.6
20260504021046 54 226 5.0 7.0 0.00 0.00 0.00 55 679.6
20260504020026 55 227 3.0 9.0 0.00 0.00 0.00 54 679.6
20260504015046 55 237 4.0 8.0 0.00 0.00 0.00 53 679.6
20260504014026 55 240 4.0 7.0 0.00 0.00 0.00 53 679.6
20260504013027 55 233 4.0 7.0 0.00 0.00 0.00 52 679.6
20260504012027 55 239 5.0 8.0 0.00 0.00 0.00 52 679.6
20260504011027 55 235 4.0 10.0 0.00 0.00 0.00 51 679.6
20260504010027 56 231 5.0 9.0 0.00 0.00 0.00 51 679.6
20260504005027 56 238 4.0 6.0 0.00 0.00 0.00 51 679.6
20260504004027 56 230 3.0 7.0 0.00 0.00 0.00 51 679.6
20260504003047 56 230 3.0 6.0 0.00 0.00 0.00 51 679.6
20260504002048 56 235 4.0 8.0 0.00 0.00 0.00 50 679.6
20260504001028 57 237 4.0 7.0 0.00 0.00 0.00 48 679.6
20260504000028 57 244 4.0 8.0 0.00 0.00 0.00 48 679.7
20260503235028 57 236 3.0 4.0 0.00 0.00 0.00 48 679.7
20260503234028 58 240 3.0 8.0 0.00 0.00 0.00 48 679.7
20260503233048 58 262 2.0 4.0 0.00 0.00 0.00 47 679.7
20260503232029 58 273 2.0 6.0 0.00 0.00 0.00 47 679.7
20260503231029 58 262 2.0 5.0 0.00 0.00 0.00 47 679.7
20260503230029 58 263 3.0 6.0 0.00 0.00 0.00 47 679.7
20260503225029 58 248 3.0 8.0 0.00 0.00 0.00 47 679.7
20260503224109 58 264 3.0 6.0 0.00 0.00 0.00 46 679.7
20260503223029 58 239 3.0 9.0 0.00 0.00 0.00 46 679.7
20260503222030 58 292 1.0 3.0 0.00 0.00 0.00 46 679.7
20260503221029 58 291 2.0 4.0 0.00 0.00 0.00 46 679.7
20260503220030 58 285 2.0 6.0 0.00 0.00 0.00 46 679.7
20260503215030 58 240 2.0 3.0 0.00 0.00 0.00 46 679.7
20260503214029 58 259 2.0 5.0 0.00 0.00 0.00 44 679.7
20260503213030 59 239 4.0 8.0 0.00 0.00 0.00 44 679.7
20260503212030 59 233 4.0 8.0 0.00 0.00 0.00 46 679.7
20260503211050 59 262 1.0 3.0 0.00 0.00 0.00 47 679.7
20260503210051 59 301 2.0 3.0 0.00 0.00 0.00 46 679.7
20260503205031 59 239 5.0 11.0 0.00 0.00 0.00 48 679.7
20260503204031 58 302 2.0 6.0 0.00 0.00 0.00 48 679.7
20260503203031 58 333 3.0 6.0 0.00 0.00 0.00 51 679.7
20260503202031 58 277 2.0 3.0 0.00 0.00 0.00 50 679.7
20260503201017 58 322 5.0 11.0 0.00 0.00 0.00 48 679.7
20260503200017 59 302 2.0 6.0 0.00 0.00 0.00 47 679.7
20260503195017 59 280 3.0 8.0 0.00 0.00 0.00 47 679.7
20260503194017 59 283 1.0 3.0 0.00 0.00 0.00 46 679.7
20260503193037 59 301 1.0 3.0 0.00 0.00 0.00 44 679.8
20260503192017 60 307 2.0 5.0 0.00 0.00 0.00 46 679.8
20260503191017 59 294 2.0 5.0 0.00 0.00 0.00 46 679.7
20260503190018 60 266 3.0 12.0 0.00 0.00 0.00 45 679.8
20260503185032 60 264 2.0 5.0 0.00 0.00 0.00 46 679.8
20260503184032 59 286 3.0 7.0 0.00 0.00 0.00 44 679.7
20260503183018 60 276 4.0 9.0 0.00 0.00 0.00 43 679.8
20260503182019 61 298 3.0 8.0 0.00 0.00 0.00 43 679.8
20260503181018 61 307 4.0 6.0 0.00 0.00 0.00 42 679.8
20260503180018 63 271 3.0 8.0 0.00 0.00 0.00 38 679.8
20260503175039 64 300 2.0 4.0 0.00 0.00 0.00 37 679.9
20260503174018 66 293 3.0 7.0 0.00 0.00 0.00 35 679.9
20260503173039 67 273 3.0 5.0 0.00 0.00 0.00 35 679.9
20260503172019 67 282 4.0 7.0 0.00 0.00 0.00 38 679.9
20260503171019 67 303 2.0 6.0 0.00 0.00 0.00 37 679.9
20260503131022 45 234 5.0 7.0 0.00 0.00 0.00 61 679.3
20260503080956 32 312 1.0 3.0 0.00 0.00 0.00 74 679.1
20260503072047 33 246 2.0 3.0 0.00 0.00 0.00 72 679.1
20260503071027 33 243 2.0 4.0 0.00 0.00 0.00 72 679.1
20260503055028 34 229 3.0 4.0 0.00 0.00 0.00 69 679.1
20260503054028 34 233 3.0 5.0 0.00 0.00 0.00 68 679.1
20260503053048 34 241 2.0 4.0 0.00 0.00 0.00 68 679.1
20260503052029 34 230 2.0 4.0 0.00 0.00 0.00 68 679.1
20260503051029 34 237 2.0 3.0 0.00 0.00 0.00 68 679.1
20260503050029 34 220 3.0 4.0 0.00 0.00 0.00 68 679.1
20260503045049 34 220 2.0 4.0 0.00 0.00 0.00 68 679.1